Home   Weather   Banjul   Past weeks

Flag for Gambia Past Weather in Banjul, Gambia — Yesterday and Last 2 Weeks

Now
81 °F

Sunny.


Feels Like: 79 °F
Forecast: N/A
Wind: 7 mph from Northeast

Location: Banjul / Yundum

Current Time: Jan 23, 2017 at 7:26:35 pm

Latest Report: Jan 23, 2017 at 7:00 pm


Visibility: 10 mi

Pressure: 29.89 "Hg

Humidity: 26%

Dew Point: 43 °F

Location of BanjulLocation

Past Weather in Banjul — Graph

°F

Banjul Temperature Yesterday

Maximum temperature yesterday: 90 °F (at 5:00 pm)
Minimum temperature yesterday: 66 °F (at 6:00 am)
Average temperature yesterday: 76 °F

High & Low Weather Summary for the Past Weeks

 TemperatureHumidityPressure
High93 °F (Jan 10, 4:00 pm)100% (Jan 18, 5:00 am)30.01 "Hg (Jan 18, 5:00 am)
Low61 °F (Jan 13, 5:00 am)13% (Jan 20, 12:00 pm)29.74 "Hg (Jan 14, 3:00 pm)
Average75 °F46%29.86 "Hg
* Reported Jan 8 6:00 pm — Jan 23 6:00 pm, Banjul, Weather by CustomWeather, © 2017

Note: Actual official high and low records may vary slightly from our data, if they occured in-between our weather recording intervals... More about our weather records

Advertising

Banjul Weather History for the Previous 24 Hours

Scroll right to see more
 ConditionsComfort  
Time TempWeatherWind HumidityBarometerVisibility
6:00 pm
Mon, Jan 23
86 °FSunny.12 mph20%29.86 "Hg10 mi
5:00 pm88 °FSunny.9 mph18%29.86 "Hg10 mi
4:00 pm90 °FSunny.15 mph18%29.86 "Hg10 mi
3:00 pm88 °FSunny.14 mph18%29.89 "Hg10 mi
2:00 pm86 °FSunny.12 mph19%29.92 "Hg10 mi
1:00 pm84 °FSunny.16 mph22%29.95 "Hg10 mi
12:00 pm81 °FSunny.20 mph23%29.98 "Hg10 mi
11:00 am77 °FSunny.17 mph26%29.98 "Hg10 mi
10:00 am73 °FSunny.14 mph31%30.01 "Hg10 mi
9:00 am68 °FSunny.16 mph38%29.98 "Hg10 mi
7:00 am66 °FClear.10 mph37%29.95 "Hg10 mi
6:00 am66 °FClear.9 mph37%29.95 "Hg10 mi
4:00 am68 °FClear.9 mph40%29.92 "Hg10 mi
3:00 am68 °FClear.9 mph38%29.92 "Hg10 mi
2:00 am68 °FClear.8 mph40%29.95 "Hg10 mi
1:00 am70 °FClear.6 mph38%29.95 "Hg10 mi
12:00 am70 °FClear.6 mph40%29.92 "Hg10 mi
11:00 pm
Sun, Jan 22
70 °FClear.8 mph43%29.95 "Hg10 mi
10:00 pm73 °FClear.6 mph33%29.95 "Hg10 mi
9:00 pm73 °FClear.6 mph38%29.89 "Hg10 mi
8:00 pm75 °FClear.6 mph44%29.86 "Hg10 mi
7:00 pm81 °FSunny.6 mph30%29.86 "Hg10 mi
Weather by CustomWeather, © 2017

See weather overviewHow to use our weather pages